loading
|

PAGEOS 1 DEB, 2256

Orbit data source: Space-Track

PAGEOS 1 DEB, 2256 is space debris originally from a launch on Fri, 24 Jun 1966 UTC launched from the Air Force Western Test Range (AFWTR). Debris objects in space refer to the collection of defunct objects orbiting the Earth. Examples of debris include non-operational satellites, rocket bodies, and fragments generated from explosions, collisions, or faulty payload assembly.

Loading next visibility...
Loading greatness...
PAGEOS 1 DEB details
Identifier
2256, 1966-056C
Orbit
Active
Last TLE update1 day ago
Origin
Flag of USNASA LaRC (US)
ManufacturerGoodyear
MissionSpacecraft
Bus & MotorECHO CANISTER, Unknown motor
Mass9 kg wet, 9 kg dry
Launch date (UTC)
1966-06-24 (58 years ago)
Launch vehicleUnknown
Launch site
Air Force Western Test Range (AFWTR)
Object type
Payload
Rocket body
Debris
Shape & HBRHalf Sphere, Unknown HBR
Radar Cross Section0.377 m², Large (>1 m²)

Expand to show TLE details & history

TLE from 1 day ago
0 PAGEOS 1 DEB
1 02256U 66056C   24280.75132964 -.00000050  00000-0 -50818-1 0  9991
2 02256  86.9258 214.3306 0029021 296.3588  63.4240  7.93572585689417
Epoch: 2024-10-06T18:01Z
Definitive object data (Epoch: 2024-10-06T18:01:54.88Z)
Latitude0.00001°
Longitude-72.03686°
Altitude4,227.428 km
Speed6.135 km/s
True Right ascension14h 17m 19s
True Declination0° 00' 00"
Sunlit
Object was in daylight at TLE epoch
Predictive object data (real-time)
Latitude-2.09593°
Longitude-72.23947°
Altitude4,227.124 km
Speed6.135 km/s
Apparent Right ascension15h 39m 12s
Apparent Declination-33° 25' 20"
Sunlit
Object is in daylight
Predictive observer data (real-time)
Local Sidereal Time12:20:00
Azimuth140.309° SSE
Elevation3.425°
Doppler factor1
Orbital elements
Apogee4,267.838 km
Perigee4,206.225 km
Semi-major axis10,615.169 km
Eccentricity0.0029021
Inclination86.9258°
RAAN214.3306°
Arg. of periapsis296.3588°
True anomaly63.7219°
Mean anomaly63.424°
Eccentric anomaly63.5729°
Mean motion1.98451 °/min
BSTAR-0.050818
Period181.41 mins
No data available

PAGEOS 1 DEB Visibility forecast

Observer location: 39.9160978°, -105.1181434

PAGEOS 1 DEB is not visible in the next 10 days
Span
Click to sort rows by Start time (UTC) header in descending order
Start Az.
Max El. time (UTC)
Max El. Az.
Max El.
End time (UTC)
End Az.